STARLINK-5738, 55573

Orbit data source: Space-Track

STARLINK-5738, 55573 is a payload satellite owned by SpaceX/Seattle (US) in LEO that was launched on Sun, 12 Feb 2023 UTC via an FALCON 9 launch vehicle from the Air Force Eastern Test Range (AFETR). Payload-class satellites include a variety of spacecraft equipped with specific instruments for various scientific and technological missions. These include communications satellites like Starlink; space stations such as the ISS; scientific satellites like the Hubble; Earth observation satellites from companies like Planet Labs, Umbra, and HawkEye 360; GPS; miniature CubeSats for education and research; and military/defense satellites.

Loading next visibility...
Identifier
55573, 2023-020E
Orbit
LEO
Country
Flag of USUS
Related business
Manufacturer
SpaceX/Seattle
Mission
Operational Commercial Communications
Bus & Motor
STARLINK, Unknown motor
Mass
305 kg wet, ~290 kg dry
Launch date (UTC)
2023-02-12 (3 years ago)
Launch vehicle
FALCON 9
Launch site
Air Force Eastern Test Range (AFETR)
Object type
Payload
Rocket body
Debris
Shape & HBR
Box + 1 Pan, 10.1 m
Radar Cross Section
13.562 m², Large (>1 m²)

Expand to show TLE details & history
Last TLE update: 9 hours ago

TLE from 9 hours ago
0 STARLINK-5738
1 55573U 23020E   26062.02578803 -.00000052  00000-0  11222-4 0  9991
2 55573  43.0052  41.1280 0001247 266.6294  93.4406 15.02534280167916
Epoch: 2026-03-03T00:37Z
TLE epoch observation values (Epoch: 2026-03-03T00:37:08.085Z)
Latitude
-0.00001°
Longitude
-128.96647°
Altitude
558.915 km
Speed
7.584 km/s
True Right ascension
02h 44m 30s
True Declination
0° 00' 00"
Sunlit
Object was in daylight at epoch
Visualization orbit readout
Latitude
Unknown
Longitude
Unknown
Altitude
Unknown
Speed
Unknown
Apparent Right ascension
Unknown
Apparent Declination
Unknown
Sunlit
N/A
Visualization observer readout
Local Sidereal Time
13:10:27
Azimuth
Unknown
Elevation
Unknown
Doppler factor
Unknown
Orbital elements
Apogee altitude
561.873 km
Perigee altitude
560.143 km
Semi-major axis
6,939.145 km
Eccentricity
0.00012
Inclination
43.0052°
RAAN
41.128°
Arg. of periapsis
266.6294°
True anomaly
93.45486°
Mean anomaly
93.4406°
Eccentric anomaly
93.44773°
Mean motion
3.75478 °/min
Orbital period
95.88 mins
BSTAR
0.000011222
Loading maneuver chart data...
Computing Atmospheric mass density...
Loading historical data...
Loading historical data...
Loading historical data...
Loading historical data...
Loading historical data...
Loading historical data...
Loading historical data...

Documentation

Showing up to 5 results
|